CES7309 ZJSY-ZGGG

Flight info

Callsign CES7309
Flight time 1h 8m
Altitude 35100
Route PORAP9YD PORAP W222 NUMKU W223 AGTEL W71 LH DCT GYA GYA1
Aircraft A320/M-SDE3FGHIRWY/LB1

Departure

Time 2026-05-04 13:44
Airport Sanya Phoenix International Airport (ZJSY)

Arrival

Time 2026-05-04 14:52
Airport Guangzhou Baiyun International Airport (ZGGG)
Time Latitude Longitude Altitude Speed Heading
2026-05-04 13:28 18.30695 109.41054 84 ft 0 kts 82°
2026-05-04 13:34 18.30695 109.41055 84 ft 2 kts 82°
2026-05-04 13:34 18.30685 109.41111 86 ft 14 kts 135°
2026-05-04 13:35 18.30565 109.41082 85 ft 23 kts 201°
2026-05-04 13:35 18.30448 109.41097 88 ft 14 kts 260°
2026-05-04 13:35 18.30428 109.40946 84 ft 27 kts 262°
2026-05-04 13:36 18.30397 109.40707 83 ft 38 kts 262°
2026-05-04 13:36 18.30368 109.40479 79 ft 35 kts 262°
2026-05-04 13:36 18.30343 109.40291 68 ft 24 kts 262°
2026-05-04 13:36 18.30326 109.40153 75 ft 32 kts 262°
2026-05-04 13:37 18.30297 109.39936 70 ft 29 kts 262°
2026-05-04 13:37 18.30273 109.39750 71 ft 21 kts 262°
2026-05-04 13:37 18.30263 109.39701 72 ft 0 kts 252°
2026-05-04 13:40 18.30264 109.39701 74 ft 0 kts 252°
2026-05-04 13:42 18.30177 109.39636 65 ft 6 kts 179°
2026-05-04 13:42 18.30176 109.39636 65 ft 0 kts 181°
2026-05-04 13:42 18.30136 109.39638 74 ft 13 kts 172°
2026-05-04 13:42 18.30075 109.39690 73 ft 10 kts 77°
2026-05-04 13:43 18.30103 109.39792 70 ft 4 kts 82°
2026-05-04 13:43 18.30103 109.39793 70 ft 2 kts 82°
2026-05-04 13:43 18.30137 109.40034 77 ft 77 kts 82°
2026-05-04 13:44 18.30254 109.40874 82 ft 152 kts 84°
2026-05-04 13:44 18.30405 109.41990 374 ft 174 kts 82°
2026-05-04 13:44 18.30566 109.43267 915 ft 171 kts 81°
2026-05-04 13:44 18.30736 109.44516 1395 ft 178 kts 82°
2026-05-04 13:45 18.30927 109.45909 1717 ft 202 kts 82°
2026-05-04 13:45 18.31136 109.47441 2103 ft 225 kts 82°
2026-05-04 13:45 18.31367 109.49136 2788 ft 234 kts 82°
2026-05-04 13:45 18.31790 109.50797 3576 ft 240 kts 59°
2026-05-04 13:46 18.32956 109.52034 4367 ft 245 kts 36°
2026-05-04 13:46 18.34445 109.52977 5196 ft 248 kts 29°
2026-05-04 13:46 18.35999 109.53808 6007 ft 252 kts 27°
2026-05-04 13:46 18.37577 109.54638 6789 ft 256 kts 27°
2026-05-04 13:47 18.39171 109.55501 7516 ft 260 kts 28°
2026-05-04 13:47 18.40775 109.56410 8250 ft 264 kts 29°
2026-05-04 13:47 18.42399 109.57363 8996 ft 269 kts 29°
2026-05-04 13:47 18.44040 109.58348 9722 ft 274 kts 30°
2026-05-04 13:48 18.45702 109.59360 10391 ft 278 kts 29°
2026-05-04 13:48 18.47387 109.60390 11082 ft 281 kts 29°
2026-05-04 13:48 18.49091 109.61418 11766 ft 284 kts 25°
2026-05-04 13:48 18.50941 109.62321 12080 ft 304 kts 23°
2026-05-04 13:49 18.52935 109.63273 12249 ft 327 kts 23°
2026-05-04 13:49 18.55081 109.64293 12469 ft 347 kts 23°
2026-05-04 13:49 18.57304 109.65351 13007 ft 354 kts 22°
2026-05-04 13:49 18.59563 109.66430 13644 ft 359 kts 22°
2026-05-04 13:50 18.61847 109.67525 14219 ft 362 kts 22°
2026-05-04 13:50 18.64156 109.68635 14784 ft 366 kts 22°
2026-05-04 13:50 18.66486 109.69754 15308 ft 370 kts 22°
2026-05-04 13:50 18.68844 109.70886 15860 ft 374 kts 22°
2026-05-04 13:51 18.71222 109.72027 16404 ft 377 kts 22°
2026-05-04 13:51 18.73620 109.73178 16923 ft 381 kts 22°
2026-05-04 13:51 18.76046 109.74338 17455 ft 385 kts 22°
2026-05-04 13:51 18.78500 109.75514 17994 ft 389 kts 22°
2026-05-04 13:52 18.83467 109.77900 18955 ft 396 kts 22°
2026-05-04 13:52 18.85984 109.79110 19397 ft 399 kts 22°
2026-05-04 13:52 18.88521 109.80329 19848 ft 402 kts 22°
2026-05-04 13:53 18.91080 109.81561 20308 ft 405 kts 22°
2026-05-04 13:53 18.93657 109.82800 20761 ft 409 kts 22°
2026-05-04 13:53 18.96251 109.84048 21197 ft 412 kts 21°
2026-05-04 13:54 19.01500 109.86574 22045 ft 418 kts 21°
2026-05-04 13:54 19.04155 109.87852 22455 ft 421 kts 21°
2026-05-04 13:54 19.09519 109.90441 23269 ft 427 kts 21°
2026-05-04 13:55 19.12226 109.91750 23656 ft 430 kts 21°
2026-05-04 13:55 19.17705 109.94394 24324 ft 435 kts 21°
2026-05-04 13:55 19.20466 109.95726 24657 ft 437 kts 21°
2026-05-04 13:56 19.23240 109.97064 24993 ft 440 kts 21°
2026-05-04 13:56 19.26038 109.98408 25321 ft 442 kts 21°
2026-05-04 13:56 19.31684 110.01038 25996 ft 446 kts 20°
2026-05-04 13:57 19.34533 110.02362 26319 ft 448 kts 20°
2026-05-04 13:57 19.37385 110.03719 26641 ft 451 kts 21°
2026-05-04 13:58 19.46004 110.07903 27580 ft 458 kts 21°
2026-05-04 13:58 19.51822 110.10717 28159 ft 462 kts 21°
2026-05-04 13:58 19.54758 110.12133 28450 ft 465 kts 21°
2026-05-04 13:59 19.57710 110.13560 28748 ft 467 kts 21°
2026-05-04 13:59 19.60711 110.15014 29042 ft 469 kts 21°
2026-05-04 13:59 19.66680 110.17905 29619 ft 474 kts 20°
2026-05-04 14:00 19.69687 110.19364 29906 ft 476 kts 20°
2026-05-04 14:00 19.75730 110.22292 30372 ft 480 kts 20°
2026-05-04 14:00 19.78771 110.23768 30605 ft 481 kts 20°
2026-05-04 14:01 19.81820 110.25247 30836 ft 483 kts 20°
2026-05-04 14:01 19.84878 110.26730 31072 ft 484 kts 20°
2026-05-04 14:01 19.91020 110.29715 31584 ft 485 kts 20°
2026-05-04 14:02 19.94083 110.31199 31922 ft 484 kts 20°
2026-05-04 14:02 19.97136 110.32681 32272 ft 482 kts 20°
2026-05-04 14:02 20.00185 110.34165 32622 ft 481 kts 20°
2026-05-04 14:02 20.03225 110.35640 32961 ft 479 kts 18°
2026-05-04 14:03 20.06354 110.36767 33103 ft 470 kts
2026-05-04 14:03 20.09511 110.37273 33137 ft 451 kts 357°
2026-05-04 14:03 20.12598 110.37182 33127 ft 438 kts 347°
2026-05-04 14:04 20.21483 110.35345 33140 ft 433 kts 343°
2026-05-04 14:04 20.27394 110.34116 33145 ft 433 kts 343°
2026-05-04 14:05 20.36250 110.32258 33147 ft 432 kts 343°
2026-05-04 14:06 20.42145 110.31002 33155 ft 432 kts 342°
2026-05-04 14:06 20.48033 110.29754 33157 ft 432 kts 344°
2026-05-04 14:07 20.54114 110.29585 33156 ft 442 kts 357°
2026-05-04 14:07 20.60260 110.29989 33154 ft 442 kts 357°
2026-05-04 14:08 20.66403 110.30372 33155 ft 442 kts 357°
2026-05-04 14:08 20.72540 110.30752 33152 ft 442 kts 357°
2026-05-04 14:09 20.81749 110.31322 33150 ft 442 kts 357°
2026-05-04 14:10 20.90950 110.31900 33150 ft 442 kts 357°
2026-05-04 14:10 20.97090 110.32289 33155 ft 442 kts 357°
2026-05-04 14:11 21.03228 110.32674 33152 ft 442 kts 357°
2026-05-04 14:11 21.12410 110.34196 33145 ft 456 kts 17°
2026-05-04 14:12 21.15242 110.35792 33147 ft 465 kts 29°
2026-05-04 14:12 21.16961 110.37181 33144 ft 470 kts 37°
2026-05-04 14:13 21.23912 110.44689 33141 ft 474 kts 41°
2026-05-04 14:13 21.28527 110.49736 33143 ft 474 kts 41°
2026-05-04 14:14 21.33147 110.54787 33145 ft 475 kts 41°
2026-05-04 14:14 21.40093 110.62382 33149 ft 476 kts 41°
2026-05-04 14:15 21.49354 110.72550 33151 ft 477 kts 41°
2026-05-04 14:16 21.56309 110.80196 33157 ft 477 kts 41°
2026-05-04 14:17 21.63258 110.87850 33160 ft 477 kts 41°
2026-05-04 14:18 21.70218 110.95511 33157 ft 477 kts 41°
2026-05-04 14:19 21.79489 111.05740 33159 ft 478 kts 41°
2026-05-04 14:19 21.84133 111.10879 33153 ft 478 kts 41°
2026-05-04 14:20 21.88812 111.16056 33162 ft 479 kts 41°
2026-05-04 14:20 21.93427 111.21176 33164 ft 480 kts 41°
2026-05-04 14:21 22.00421 111.28941 33167 ft 480 kts 41°
2026-05-04 14:21 22.05080 111.34116 33170 ft 480 kts 41°
2026-05-04 14:22 22.09730 111.39283 33174 ft 481 kts 41°
2026-05-04 14:22 22.14389 111.44473 33180 ft 482 kts 41°
2026-05-04 14:23 22.21382 111.52272 33181 ft 482 kts 41°
2026-05-04 14:24 22.26041 111.57467 33180 ft 482 kts 41°
2026-05-04 14:24 22.30699 111.62671 33172 ft 482 kts 41°
2026-05-04 14:25 22.35363 111.67880 33173 ft 482 kts 40°
2026-05-04 14:25 22.42386 111.75723 33186 ft 492 kts 41°
2026-05-04 14:26 22.47194 111.81114 33176 ft 501 kts 41°
2026-05-04 14:26 22.52036 111.86552 33178 ft 503 kts 41°
2026-05-04 14:27 22.56893 111.92013 33165 ft 503 kts 41°
2026-05-04 14:27 22.61749 111.97477 33186 ft 504 kts 41°
2026-05-04 14:28 22.66611 112.02948 33172 ft 504 kts 41°
2026-05-04 14:28 22.71471 112.08428 33167 ft 504 kts 41°
2026-05-04 14:29 22.81177 112.19389 33157 ft 503 kts 41°
2026-05-04 14:30 22.86064 112.24907 33164 ft 505 kts 41°
2026-05-04 14:31 22.93351 112.33164 33162 ft 505 kts 41°
2026-05-04 14:32 23.03072 112.44190 33156 ft 506 kts 41°
2026-05-04 14:32 23.07932 112.49714 33151 ft 506 kts 41°
2026-05-04 14:33 23.12523 112.55530 33091 ft 513 kts 56°
2026-05-04 14:33 23.14002 112.59058 32609 ft 514 kts 71°
2026-05-04 14:33 23.14625 112.62885 31608 ft 516 kts 90°
2026-05-04 14:33 23.14301 112.66724 30640 ft 506 kts 105°
2026-05-04 14:34 23.13541 112.70439 29643 ft 501 kts 106°
2026-05-04 14:34 23.12799 112.74123 28568 ft 497 kts 105°
2026-05-04 14:34 23.12085 112.77775 27535 ft 492 kts 105°
2026-05-04 14:34 23.11392 112.81387 26542 ft 486 kts 104°
2026-05-04 14:35 23.10710 112.84955 25557 ft 479 kts 104°
2026-05-04 14:35 23.10028 112.88489 24408 ft 478 kts 104°
2026-05-04 14:35 23.09340 112.92014 23220 ft 476 kts 104°
2026-05-04 14:35 23.08648 112.95523 21919 ft 473 kts 104°
2026-05-04 14:36 23.07959 112.99008 20670 ft 470 kts 104°
2026-05-04 14:36 23.07276 113.02463 19478 ft 467 kts 104°
2026-05-04 14:36 23.06600 113.05904 18322 ft 463 kts 103°
2026-05-04 14:36 23.06216 113.09355 17000 ft 460 kts 91°
2026-05-04 14:37 23.06485 113.12804 15611 ft 458 kts 79°
2026-05-04 14:37 23.07282 113.16109 12952 ft 457 kts 69°
2026-05-04 14:37 23.08436 113.19314 10944 ft 445 kts 68°
2026-05-04 14:37 23.09550 113.22370 9186 ft 425 kts 68°
2026-05-04 14:38 23.10609 113.25272 7605 ft 402 kts 68°
2026-05-04 14:38 23.11587 113.28026 6237 ft 380 kts 72°
2026-05-04 14:38 23.11923 113.30563 5269 ft 367 kts 94°
2026-05-04 14:38 23.11486 113.33096 5596 ft 314 kts 108°
2026-05-04 14:39 23.10735 113.35102 6132 ft 262 kts 119°
2026-05-04 14:39 23.09804 113.36675 6676 ft 244 kts 130°
2026-05-04 14:39 23.08633 113.38020 6945 ft 250 kts 142°
2026-05-04 14:40 23.05696 113.39840 6708 ft 241 kts 159°
2026-05-04 14:40 23.04142 113.40583 6584 ft 240 kts 158°
2026-05-04 14:40 23.02637 113.41311 6473 ft 240 kts 158°
2026-05-04 14:40 23.01116 113.42050 6340 ft 239 kts 158°
2026-05-04 14:41 22.99581 113.42795 6222 ft 238 kts 158°
2026-05-04 14:41 22.98070 113.43528 6092 ft 238 kts 158°
2026-05-04 14:41 22.94990 113.44428 5846 ft 225 kts 189°
2026-05-04 14:42 22.92500 113.42774 5594 ft 207 kts 238°
2026-05-04 14:42 22.91983 113.41348 5470 ft 204 kts 261°
2026-05-04 14:42 22.92038 113.39820 5349 ft 205 kts 284°
2026-05-04 14:43 22.92656 113.38437 5222 ft 207 kts 308°
2026-05-04 14:43 22.93747 113.37429 5121 ft 208 kts 332°
2026-05-04 14:43 22.95106 113.36876 5035 ft 209 kts 341°
2026-05-04 14:43 22.96485 113.36378 5007 ft 209 kts 341°
2026-05-04 14:44 22.97866 113.35878 5009 ft 209 kts 341°
2026-05-04 14:44 22.99248 113.35375 5009 ft 209 kts 341°
2026-05-04 14:44 23.00629 113.34872 5011 ft 209 kts 341°
2026-05-04 14:44 23.02007 113.34369 5009 ft 209 kts 341°
2026-05-04 14:45 23.03383 113.33866 5009 ft 209 kts 341°
2026-05-04 14:45 23.04762 113.33360 5010 ft 209 kts 341°
2026-05-04 14:45 23.06138 113.32853 5014 ft 209 kts 341°
2026-05-04 14:45 23.07514 113.32348 5014 ft 209 kts 341°
2026-05-04 14:46 23.08891 113.31845 5012 ft 209 kts 341°
2026-05-04 14:46 23.10243 113.31352 5030 ft 197 kts 341°
2026-05-04 14:46 23.11562 113.30869 5025 ft 205 kts 341°
2026-05-04 14:46 23.12807 113.30411 5019 ft 207 kts 341°
2026-05-04 14:47 23.14177 113.29905 5019 ft 208 kts 341°
2026-05-04 14:47 23.15543 113.29400 4635 ft 215 kts 341°
2026-05-04 14:47 23.17010 113.28860 3893 ft 228 kts 342°
2026-05-04 14:47 23.18555 113.28294 3156 ft 240 kts 342°
2026-05-04 14:48 23.19593 113.27914 2999 ft 233 kts 342°
2026-05-04 14:48 23.21079 113.27370 2912 ft 214 kts 342°
2026-05-04 14:48 23.22483 113.27001 2834 ft 208 kts
2026-05-04 14:48 23.23888 113.27239 2645 ft 194 kts 16°
2026-05-04 14:49 23.25134 113.27577 2408 ft 175 kts 16°
2026-05-04 14:49 23.26274 113.27887 2178 ft 164 kts 16°
2026-05-04 14:49 23.27364 113.28182 1971 ft 160 kts 16°
2026-05-04 14:49 23.28435 113.28471 1763 ft 157 kts 16°
2026-05-04 14:50 23.29480 113.28753 1577 ft 150 kts 16°
2026-05-04 14:50 23.30477 113.29022 1371 ft 146 kts 16°
2026-05-04 14:50 23.31453 113.29285 1181 ft 143 kts 15°
2026-05-04 14:50 23.32417 113.29546 997 ft 142 kts 15°
2026-05-04 14:51 23.33351 113.29798 817 ft 142 kts 15°
2026-05-04 14:51 23.34306 113.30056 636 ft 141 kts 14°
2026-05-04 14:51 23.35258 113.30312 434 ft 140 kts 14°
2026-05-04 14:51 23.36203 113.30568 252 ft 140 kts 14°
2026-05-04 14:52 23.37147 113.30823 67 ft 139 kts 14°
2026-05-04 14:52 23.37949 113.31039 52 ft 101 kts 14°
2026-05-04 14:52 23.38479 113.31185 51 ft 52 kts 13°
2026-05-04 14:52 23.38803 113.31272 56 ft 44 kts 13°
2026-05-04 14:53 23.39063 113.31288 55 ft 32 kts 348°
2026-05-04 14:53 23.39197 113.31253 54 ft 11 kts 346°
2026-05-04 14:53 23.39200 113.31252 54 ft 0 kts 346°
2026-05-04 14:53 23.39221 113.31246 52 ft 8 kts 345°
2026-05-04 14:54 23.39313 113.31222 55 ft 18 kts 352°
2026-05-04 14:54 23.39467 113.31248 51 ft 27 kts 13°
2026-05-04 14:54 23.39672 113.31303 56 ft 29 kts 13°
2026-05-04 14:54 23.39750 113.31271 58 ft 9 kts 281°
2026-05-04 14:55 23.39770 113.31166 58 ft 19 kts 284°
2026-05-04 14:55 23.39812 113.30992 58 ft 28 kts 285°
2026-05-04 14:55 23.39918 113.30967 57 ft 21 kts 15°
2026-05-04 14:55 23.40009 113.30861 58 ft 13 kts 283°
2026-05-04 14:56 23.40012 113.30849 58 ft 1 kts 283°
2026-05-04 14:56 23.40008 113.30805 58 ft 11 kts 239°
2026-05-04 14:56 23.39910 113.30764 50 ft 20 kts 194°
2026-05-04 14:56 23.39802 113.30726 55 ft 13 kts 227°
2026-05-04 14:57 23.39775 113.30611 57 ft 7 kts 261°
2026-05-04 14:57 23.39773 113.30595 57 ft 1 kts 260°
2026-05-04 14:57 23.39772 113.30593 58 ft 0 kts 260°